Home > Weather > Ufa > Past weeks

Flag for Russia Past Weather in Ufa, Russia — Yesterday and Last 2 Weeks

Now
63 °F

Overcast.


Feels Like: 63 °F
Forecast: 58 / 78 °F
Wind: 10 mph from Northwest

Location: Ufa

Current Time: Jul 1, 2016 at 11:21:48 AM

Latest Report: Jul 1, 2016 at 10:30 AM


Visibility: N/A

Pressure: 29.89 "Hg

Humidity: 77%

Dew Point: 55 °F

Location of UfaLocation

Past Weather in Ufa — Graph

°F

Ufa Temperature Yesterday

Maximum temperature yesterday: 61 °F (at 3:30 PM)
Minimum temperature yesterday: 52 °F (at 2:00 AM)
Average temperature yesterday: 57 °F

High & Low Weather Summary for the Past Weeks

 TemperatureHumidityPressure
High88 °F (Jun 21, 2:30 PM)100% (Jun 22, 3:00 AM)30.18 "Hg (Jun 22, 3:00 AM)
Low50 °F (Jun 18, 5:30 AM)28% (Jun 18, 3:30 PM)29.50 "Hg (Jun 27, 5:00 PM)
Average67 °F67%29.94 "Hg
* Reported Jun 16 10:00 AM — Jul 1 10:00 AM, Ufa, Weather by CustomWeather, © 2016

Note: Actual official high and low records may vary slightly from our data, if they occured in-between our weather recording intervals... More about our weather records

Advertising

Ufa Weather History for the Previous 24 Hours

Scroll right to see more
 ConditionsComfort  
Time TempWeatherWind HumidityBarometerVisibility
10:00 AM
Fri, Jul 1
61 °FOvercast.10 mph83%29.89 "HgN/A
9:30 AM61 °FOvercast.10 mph83%29.89 "HgN/A
9:00 AM61 °FOvercast.8 mph88%29.89 "HgN/A
8:30 AM61 °FOvercast.10 mph88%29.89 "HgN/A
8:00 AM59 °FOvercast.10 mph88%29.89 "HgN/A
7:30 AM59 °FOvercast.6 mph94%29.89 "HgN/A
7:00 AM59 °FOvercast.6 mph94%29.86 "HgN/A
6:30 AM59 °FOvercast.3 mph88%29.86 "HgN/A
6:00 AM57 °FOvercast.1 mph94%29.86 "HgN/A
5:30 AM57 °FOvercast.6 mph94%29.86 "HgN/A
5:00 AM57 °FOvercast.6 mph94%29.86 "HgN/A
4:30 AM57 °FOvercast.3 mph88%29.86 "HgN/A
4:00 AM57 °FOvercast.3 mph88%29.86 "HgN/A
3:30 AM57 °FOvercast.3 mph88%29.86 "HgN/A
3:00 AM57 °FOvercast.3 mph88%29.86 "HgN/A
2:30 AM57 °FOvercast.6 mph88%29.86 "HgN/A
2:00 AM57 °FOvercast.6 mph88%29.86 "HgN/A
1:30 AM57 °FOvercast.3 mph88%29.86 "HgN/A
1:00 AM57 °FOvercast.3 mph88%29.86 "HgN/A
12:30 AM57 °FOvercast.6 mph88%29.86 "HgN/A
12:00 AM57 °FPassing clouds.3 mph88%29.86 "HgN/A
11:30 PM
Thu, Jun 30
57 °FPassing clouds.3 mph82%29.86 "HgN/A
11:00 PM55 °FPassing clouds.3 mph88%29.86 "HgN/A
10:30 PM57 °FPartly sunny.3 mph82%29.86 "HgN/A
10:00 PM55 °FPartly sunny.3 mph88%29.86 "HgN/A
9:30 PM57 °FPartly sunny.6 mph82%29.86 "HgN/A
9:00 PM57 °FPartly sunny.8 mph82%29.83 "HgN/A
8:30 PM57 °FPartly sunny.10 mph82%29.83 "HgN/A
8:00 PM59 °FPartly sunny.10 mph77%29.83 "HgN/A
7:30 PM59 °FPartly sunny.10 mph77%29.83 "HgN/A
7:00 PM57 °FPartly sunny.8 mph88%29.83 "HgN/A
6:30 PM59 °FPartly sunny.6 mph77%29.83 "HgN/A
6:00 PM59 °FPartly sunny.6 mph77%29.83 "HgN/A
5:30 PM57 °FSprinkles. Partly sunny.10 mph82%29.83 "HgN/A
5:00 PM61 °FPartly sunny.8 mph72%29.83 "HgN/A
4:30 PM59 °FPartly sunny.10 mph77%29.83 "HgN/A
4:00 PM59 °FPartly sunny.8 mph77%29.80 "HgN/A
3:30 PM61 °FPartly sunny.3 mph72%29.80 "HgN/A
3:00 PM57 °FOvercast.3 mph88%29.80 "HgN/A
2:30 PM57 °FOvercast.3 mph88%29.80 "HgN/A
2:00 PM55 °FSprinkles. Overcast.3 mph94%29.80 "Hg2 mi
1:30 PM57 °FSprinkles. Overcast.6 mph82%29.80 "HgN/A
1:00 PM59 °FOvercast.8 mph77%29.80 "HgN/A
12:30 PM57 °FOvercast.8 mph82%29.80 "HgN/A
12:00 PM57 °FOvercast.8 mph82%29.80 "HgN/A
11:30 AM59 °FOvercast.3 mph77%29.80 "HgN/A
11:00 AM59 °FOvercast.6 mph72%29.80 "HgN/A
Weather by CustomWeather, © 2016

See weather overviewHow to use our weather pages